• en Suisse
  • Liste des pays
  • À 7 jours
  • Température de l'eau
  • Carte satellitaire
  • Carte météo
  • Widgets météo
  • user-avatar
    Se connecter

    Météo par heure à Kyurovschina

    Ce jour, 22 Octobre, Lundi

    Heure Température Précipitation Vent Pression Humidité
    00:00 +5°C° 0 mm 6 m/s 757 mmHg 82%
    01:00 +5°C° 0 mm 6 m/s 756 mmHg 82%
    02:00 +6°C° 0 mm 8 m/s 755 mmHg 82%
    03:00 +6°C° 0 mm 8 m/s 754 mmHg 83%
    04:00 +6°C° 0 mm 8 m/s 753 mmHg 84%
    05:00 +7°C° 0 mm 8 m/s 753 mmHg 85%
    06:00 +7°C° 0.1 mm 8 m/s 752 mmHg 85%
    07:00 +7°C° 0.1 mm 8 m/s 752 mmHg 85%
    08:00 +9°C° 0.1 mm 8 m/s 751 mmHg 85%
    09:00 +9°C° 0.4 mm 8 m/s 751 mmHg 85%
    10:00 +9°C° 0.4 mm 7 m/s 750 mmHg 85%
    11:00 +9°C° 0.4 mm 7 m/s 750 mmHg 86%
    12:00 +10°C° 0.6 mm 7 m/s 750 mmHg 86%
    13:00 +10°C° 0.6 mm 6 m/s 750 mmHg 86%
    14:00 +10°C° 0.6 mm 6 m/s 749 mmHg 86%
    15:00 +10°C° 0.3 mm 6 m/s 749 mmHg 85%
    16:00 +9°C° 0.3 mm 5 m/s 749 mmHg 84%
    17:00 +9°C° 0.3 mm 5 m/s 748 mmHg 83%
    18:00 +8°C° 0.1 mm 5 m/s 748 mmHg 82%
    19:00 +7°C° 0.1 mm 6 m/s 748 mmHg 80%
    20:00 +7°C° 0.1 mm 6 m/s 748 mmHg 79%
    21:00 +5°C° 0 mm 6 m/s 749 mmHg 77%
    22:00 +5°C° 0 mm 6 m/s 749 mmHg 75%
    23:00 +5°C° 0 mm 5 m/s 749 mmHg 74%

    Demain, 23 Octobre, Mardi

    Heure Température Précipitation Vent Pression Humidité
    00:00 +5°C° 0 mm 5 m/s 749 mmHg 73%
    01:00 +5°C° 0 mm 5 m/s 748 mmHg 73%
    02:00 +3°C° 0 mm 5 m/s 748 mmHg 73%
    03:00 +3°C° 0 mm 5 m/s 748 mmHg 73%
    04:00 +3°C° 0 mm 5 m/s 747 mmHg 74%
    05:00 +4°C° 0 mm 4 m/s 747 mmHg 75%
    06:00 +4°C° 0 mm 4 m/s 747 mmHg 76%
    07:00 +4°C° 0 mm 4 m/s 746 mmHg 77%
    08:00 +4°C° 0 mm 4 m/s 746 mmHg 78%
    09:00 +5°C° 0.1 mm 4 m/s 745 mmHg 75%
    10:00 +5°C° 0.1 mm 4 m/s 745 mmHg 72%
    11:00 +6°C° 0.1 mm 4 m/s 744 mmHg 68%
    12:00 +6°C° 0.1 mm 4 m/s 743 mmHg 68%
    13:00 +6°C° 0.1 mm 4 m/s 742 mmHg 69%
    14:00 +7°C° 0.1 mm 4 m/s 742 mmHg 69%
    15:00 +6°C° 0 mm 4 m/s 740 mmHg 72%
    16:00 +5°C° 0 mm 4 m/s 739 mmHg 76%
    17:00 +3°C° 0 mm 5 m/s 738 mmHg 80%
    18:00 +3°C° 0 mm 5 m/s 737 mmHg 82%
    19:00 +3°C° 0 mm 5 m/s 737 mmHg 83%
    20:00 +3°C° 0 mm 5 m/s 736 mmHg 84%
    21:00 +3°C° 0 mm 5 m/s 735 mmHg 84%
    22:00 +3°C° 0 mm 5 m/s 734 mmHg 84%
    23:00 +3°C° 0 mm 5 m/s 733 mmHg 84%

    Après-demain, 24 Octobre, Mercredi

    Heure Température Précipitation Vent Pression Humidité
    00:00 +3°C° 0.3 mm 6 m/s 732 mmHg 84%
    01:00 +3°C° 0.3 mm 6 m/s 732 mmHg 84%
    02:00 +3°C° 0.3 mm 6 m/s 731 mmHg 84%
    03:00 +3°C° 0.5 mm 6 m/s 731 mmHg 84%
    04:00 +3°C° 0.5 mm 6 m/s 731 mmHg 84%
    05:00 +2°C° 0.5 mm 6 m/s 730 mmHg 83%
    06:00 +2°C° 0.3 mm 6 m/s 731 mmHg 83%
    07:00 +2°C° 0.3 mm 6 m/s 731 mmHg 83%
    08:00 +2°C° 0.3 mm 6 m/s 732 mmHg 82%
    09:00 +3°C° 0.1 mm 5 m/s 733 mmHg 81%
    10:00 +3°C° 0.1 mm 5 m/s 733 mmHg 80%
    11:00 +3°C° 0.1 mm 5 m/s 734 mmHg 79%
    12:00 +3°C° 0 mm 5 m/s 735 mmHg 77%
    13:00 +3°C° 0 mm 5 m/s 736 mmHg 76%
    14:00 +5°C° 0 mm 4 m/s 737 mmHg 74%
    15:00 +4°C° 0 mm 4 m/s 737 mmHg 77%
    16:00 +4°C° 0 mm 3 m/s 738 mmHg 80%
    17:00 +3°C° 0 mm 3 m/s 739 mmHg 82%
    18:00 +4°C° 0 mm 2 m/s 739 mmHg 85%
    19:00 +3°C° 0 mm 2 m/s 740 mmHg 87%
    20:00 +4°C° 0 mm 1 m/s 740 mmHg 89%
    21:00 +4°C° 0.1 mm 1 m/s 740 mmHg 89%
    22:00 +4°C° 0.1 mm 1 m/s 741 mmHg 89%
    23:00 +4°C° 0.1 mm 1 m/s 741 mmHg 89%

    25 Octobre, Jeudi

    Heure Température Précipitation Vent Pression Humidité
    00:00 +4°C° 0.2 mm 1 m/s 741 mmHg 89%
    01:00 +3°C° 0.2 mm 2 m/s 741 mmHg 89%
    02:00 +3°C° 0.2 mm 2 m/s 741 mmHg 89%
    03:00 +3°C° 0 mm 2 m/s 741 mmHg 89%
    04:00 +3°C° 0 mm 2 m/s 740 mmHg 89%
    05:00 +3°C° 0 mm 2 m/s 740 mmHg 89%
    06:00 +2°C° 0 mm 2 m/s 740 mmHg 90%
    07:00 +2°C° 0 mm 2 m/s 740 mmHg 90%
    08:00 +2°C° 0 mm 2 m/s 739 mmHg 91%
    09:00 +3°C° 0.1 mm 2 m/s 739 mmHg 86%
    10:00 +5°C° 0.1 mm 2 m/s 739 mmHg 82%
    11:00 +7°C° 0.1 mm 1 m/s 739 mmHg 77%
    12:00 +6°C° 0.3 mm 2 m/s 739 mmHg 75%
    13:00 +6°C° 0.3 mm 2 m/s 739 mmHg 72%
    14:00 +7°C° 0.3 mm 2 m/s 739 mmHg 70%
    15:00 +6°C° 0.1 mm 2 m/s 739 mmHg 74%
    16:00 +5°C° 0.1 mm 2 m/s 739 mmHg 79%
    17:00 +4°C° 0.1 mm 2 m/s 739 mmHg 83%
    18:00 +4°C° 0.1 mm 2 m/s 739 mmHg 85%
    19:00 +4°C° 0.1 mm 2 m/s 740 mmHg 86%
    20:00 +3°C° 0.1 mm 2 m/s 740 mmHg 87%
    21:00 +2°C° 0.2 mm 3 m/s 740 mmHg 88%
    22:00 +2°C° 0.2 mm 3 m/s 740 mmHg 89%
    23:00 +2°C° 0.2 mm 3 m/s 740 mmHg 89%

    26 Octobre, Vendredi

    Heure Température Précipitation Vent Pression Humidité
    00:00 +2°C° 0.2 mm 3 m/s 740 mmHg 89%
    01:00 +2°C° 0.2 mm 3 m/s 740 mmHg 89%
    02:00 +2°C° 0.2 mm 3 m/s 740 mmHg 89%
    03:00 +2°C° 0.2 mm 3 m/s 740 mmHg 89%
    04:00 +1°C° 0.2 mm 4 m/s 741 mmHg 89%
    05:00 +1°C° 0.2 mm 4 m/s 741 mmHg 89%
    06:00 +1°C° 0.1 mm 4 m/s 741 mmHg 86%
    07:00 +1°C° 0.1 mm 4 m/s 741 mmHg 84%
    08:00 +1°C° 0.1 mm 5 m/s 741 mmHg 81%
    09:00 +1°C° 0 mm 5 m/s 742 mmHg 77%
    10:00 +2°C° 0 mm 5 m/s 742 mmHg 74%
    11:00 +2°C° 0 mm 5 m/s 742 mmHg 70%
    12:00 +2°C° 0 mm 5 m/s 743 mmHg 70%
    13:00 +2°C° 0 mm 5 m/s 743 mmHg 70%
    14:00 +2°C° 0 mm 5 m/s 743 mmHg 71%
    15:00 +3°C° 0 mm 4 m/s 744 mmHg 72%
    16:00 +1°C° 0 mm 4 m/s 744 mmHg 73%
    17:00 +1°C° 0 mm 4 m/s 744 mmHg 74%
    18:00 +2°C° 0 mm 3 m/s 745 mmHg 76%
    19:00 +1°C° 0 mm 3 m/s 745 mmHg 77%
    20:00 +2°C° 0 mm 2 m/s 745 mmHg 78%
    21:00 +2°C° 0 mm 2 m/s 745 mmHg 80%
    22:00 +1°C° 0 mm 2 m/s 745 mmHg 81%
    23:00 +1°C° 0 mm 2 m/s 745 mmHg 83%

    27 Octobre, Samedi

    Heure Température Précipitation Vent Pression Humidité
    00:00 +1°C° 0 mm 2 m/s 745 mmHg 83%
    01:00 +1°C° 0 mm 2 m/s 745 mmHg 84%
    02:00 +1°C° 0 mm 3 m/s 745 mmHg 85%
    03:00 +1°C° 0.6 mm 3 m/s 744 mmHg 85%
    04:00 0°C° 0.6 mm 4 m/s 744 mmHg 84%
    05:00 0°C° 0.6 mm 4 m/s 743 mmHg 84%
    06:00 0°C° 1 mm 5 m/s 742 mmHg 85%
    07:00 +1°C° 1 mm 5 m/s 742 mmHg 85%
    08:00 +1°C° 1 mm 6 m/s 741 mmHg 86%
    09:00 +1°C° 1.2 mm 5 m/s 741 mmHg 88%
    10:00 +1°C° 1.2 mm 5 m/s 741 mmHg 89%
    11:00 +2°C° 1.2 mm 5 m/s 741 mmHg 91%
    12:00 +4°C° 0.6 mm 4 m/s 741 mmHg 90%
    13:00 +4°C° 0.6 mm 4 m/s 741 mmHg 90%
    14:00 +5°C° 0.6 mm 4 m/s 741 mmHg 89%
    15:00 +5°C° 0 mm 3 m/s 741 mmHg 89%
    16:00 +4°C° 0 mm 3 m/s 742 mmHg 88%
    17:00 +4°C° 0 mm 3 m/s 742 mmHg 88%
    18:00 +3°C° 0 mm 3 m/s 743 mmHg 88%
    19:00 +3°C° 0 mm 3 m/s 743 mmHg 87%
    20:00 +3°C° 0 mm 3 m/s 744 mmHg 87%
    21:00 +3°C° 0 mm 3 m/s 744 mmHg 88%
    22:00 +3°C° 0 mm 3 m/s 745 mmHg 88%
    23:00 +4°C° 0 mm 2 m/s 745 mmHg 89%

    28 Octobre, Dimanche

    Heure Température Précipitation Vent Pression Humidité
    00:00 +4°C° 0 mm 2 m/s 746 mmHg 90%
    01:00 +4°C° 0 mm 1 m/s 746 mmHg 90%
    02:00 +4°C° 0 mm 1 m/s 747 mmHg 91%
    03:00 +4°C° 0 mm 1 m/s 747 mmHg 91%
    04:00 +4°C° 0 mm 1 m/s 746 mmHg 91%
    05:00 +4°C° 0 mm 1 m/s 746 mmHg 91%
    06:00 +3°C° 0 mm 2 m/s 746 mmHg 91%
    07:00 +3°C° 0 mm 2 m/s 746 mmHg 91%
    08:00 +4°C° 0 mm 2 m/s 746 mmHg 90%
    09:00 +3°C° 0.1 mm 3 m/s 746 mmHg 89%
    10:00 +3°C° 0.1 mm 4 m/s 746 mmHg 88%
    11:00 +3°C° 0.1 mm 4 m/s 745 mmHg 87%
    12:00 +2°C° 1.1 mm 5 m/s 745 mmHg 86%
    13:00 +2°C° 1.1 mm 6 m/s 744 mmHg 86%
    14:00 +2°C° 1.1 mm 6 m/s 743 mmHg 85%
    15:00 +2°C° 1.8 mm 7 m/s 743 mmHg 85%
    16:00 +2°C° 1.8 mm 7 m/s 742 mmHg 86%
    17:00 +1°C° 1.8 mm 8 m/s 741 mmHg 86%
    18:00 0°C° 2.4 mm 8 m/s 741 mmHg 86%
    19:00 0°C° 2.4 mm 7 m/s 741 mmHg 87%
    20:00 0°C° 2.4 mm 7 m/s 741 mmHg 87%
    21:00 0°C° 0.8 mm 7 m/s 742 mmHg 87%
    22:00 0°C° 0.8 mm 7 m/s 743 mmHg 87%
    23:00 +1°C° 0.8 mm 6 m/s 744 mmHg 87%
    Voir plus